Regional Weather Roundup
Issued by NWS Charleston, SC

Current Version | Previous Version | Graphics & Text | Print | Product List | Glossary On
Versions: 1 2 3 4 5 6 7 8 9 10 11 12 13 14 15 16 17 18 19 20 21 22 23 24 25 26 27 28 29 30 31 32 33 34 35 36 37 38 39 40 41 42 43 44 45 46 47 48 49 50
000 ASUS42 KCHS 170812 RWRCHS REGIONAL WEATHER ROUNDUP NATIONAL WEATHER SERVICE CHARLESTON SC 300 AM EST TUE JAN 17 2017 NOTE: "FAIR" INDICATES FEW OR NO CLOUDS BELOW 12,000 FEET WITH NO SIGNIFICANT WEATHER AND/OR OBSTRUCTIONS TO VISIBILITY. NOT ALL STATIONS ARE QUALITY CONTROLLED. USE DATA WITH CAUTION... ESPECIALLY DEWPOINT OBSERVATIONS. SCZ027-030-031-034>040-042>050-170900- ...SOUTHEAST SOUTH CAROLINA... CITY SKY/WX TMP DP RH WIND PRES REMARKS N CHARLESTON FOG 54 52 93 N3 30.25S VSB 1/4 WATERFRONT PRK N/A 55 54 96 CALM 30.24F MOUNT PLEASANT LGT RAIN 54 54 100 CALM 30.26R JOHNS ISLAND FOG 55 55 100 CALM 30.25F VSB 1/4 PINOPOLIS N/A 52 52 100 CALM 30.19S MONCKS CORNER CLOUDY 50 50 100 CALM 30.26S FOG SUMMERVILLE CLOUDY N/A N/A N/A CALM 30.27S BEAUFORT MCAS FOG 58 57 97 CALM 30.26S VSB 1/4 BEAUFORT ARPT FOG 55 55 100 CALM 30.26R VSB 1/4 HILTON HEAD IS FOG 57 55 94 N5 30.27R VSB<1/4 WALTERBORO FOG 59 N/A N/A CALM 30.27S VSB 1/4 ALLENDALE CLOUDY 61 59 94 SE7 30.25S ...SOUTHERN MIDLANDS AND PEE DEE... CITY SKY/WX TMP DP RH WIND PRES REMARKS GEORGETOWN PTSUNNY 50 48 93 CALM 30.27S KINGSTREE CLOUDY 52 50 93 NW3 30.28R FOG ORANGEBURG FOG 56 56 100 CALM 30.26S VSB 1/4 BARNWELL CLOUDY 61 61 100 CALM 30.26S FOG AIKEN FOG 54 54 100 CALM 30.29S VSB 1/2 MANNING FOG 52 52 100 CALM 30.28R VSB 1/2 COLUMBIA FOG 54 53 97 E5 30.26F VSB 3/4 SUMTER FOG 53 52 98 CALM 30.25S VSB 1/2 FLORENCE CLOUDY 53 51 93 CALM 30.28S MYRTLE BEACH CLOUDY 54 48 82 NE3 30.28S N MYRTLE BEACH CLEAR 48 48 100 NE5 30.25F $$ GAZ063-065-086>088-099>101-113>116-118-119-134>141-150-170900- ...SOUTHEAST GEORGIA... CITY SKY/WX TMP DP RH WIND PRES REMARKS SAVANNAH ARPT FOG 58 56 93 SE3 30.25F VSB 1/2 HUNTER AAF FOG 58 58 100 CALM 30.23S VSB 1/2 FORT STEWART FOG 57 56 98 CALM 30.23F VSB 1/2 STATESBORO CLOUDY 59 59 100 CALM 30.26S FOG SYLVANIA CLOUDY N/A N/A N/A S3 30.26S FOG CLAXTON CLOUDY N/A N/A N/A CALM 30.25F FOG ...CSRA...CENTRAL AND FAR SOUTHEAST GEORGIA... CITY SKY/WX TMP DP RH WIND PRES REMARKS THOMSON CLOUDY 61 61 100 CALM 30.29S AUGUSTA-BUSH FOG 59 57 93 CALM 30.25S VSB 1/4 AUGUSTA-DANIEL FOG 59 56 89 CALM 30.25F VSB 1/4 SWAINSBORO CLOUDY 59 59 100 NE7 30.25F VIDALIA CLOUDY 59 59 100 CALM 30.25R FOG EASTMAN FOG 55 55 100 CALM 30.26R VSB 1 HAZLEHURST CLOUDY 59 59 100 S6 30.23S FOG ALMA FOG 59 59 100 SE3 30.24S VSB 1/4 WAYCROSS FOG 62 62 100 S3 30.25S VSB 1/2 JESUP FOG 59 57 94 CALM 30.25F VSB<1/4 BAXLEY FOG 61 61 100 S3 30.25R VSB 3/4 BRUNSWICK FOG 59 59 100 CALM 30.25F VSB 1/4 SAINT SIMONS FOG 59 59 100 CALM 30.24F VSB 1/4 $$ SCZ027-028-034-036>038-045-046-048>050-GAZ119-141-170900- ...LAKE AND SUPPLEMENTAL COASTAL OBSERVATIONS... STATION/POSITION TIME TEMP WIND PRES WAVE SWELL AIR SEA DIR/SP/G HT/PER HT/PER/DIR (UTC) (F) (DEG/KT/KT) (MB) (FT/S) (FT/S/D) WINYAH BAY 0645 53 60/ 4 1024.0 LAKE MURRAY 0720 53 CALM / 2 1024.4F ACE BASIN NERRS NOT AVBL FORT PULASKI 0748 56 CALM 1024.5F SAPELO ISLAND 0700 59 10/ 4 1024.0 $$ ANZ835-935-AMZ111-154-330-350-352-354-370-450-454-472-170900- ...C-MAN AND BUOY OBSERVATIONS... STATION/POSITION TIME TEMP WIND PRES WAVE SWELL AIR SEA DIR/SP/G HT/PER HT/PER/DIR (UTC) (F) (DEG/KT/KT) (MB) (FT/S) (FT/S/D) BUOY 41004 0750 70 70 110/ 4/ 6 1023.9F 4/ 7 3/130/ 7 BUOY 41008 0650 60 59 80/ 4/ 4 1024.2 3/ 6 3/ 50/ 6 FOLLY BEACH CMAN 0700 55 20/ 4/ 4 1025.1F CAPERS NEARSHORE 0708 54 54 70/ 6/ 8 1024.1F FRIPP NEARSHORE 0708 56 56 30/ 4/ 6 1024.2F STATION/POSITION TIME TEMP WIND PRES WAVE SWELL AIR SEA DIR/SP/G HT/PER HT/PER/DIR (UTC) (F) (DEG/KT/KT) (MB) (FT/S) (FT/S/D) 5E ST. MARYS GA 0730 61 N/A 2/10 2/100/11 FRYING PAN BUOY 0750 68 70 90/ 8/ 10 1024.5F 3/11 3/120/11 BUOY 41025 0750 56 73 10/ 8/ 8 1024.9F 3/ 9 3/110/ 9 CAPE LOOKOUT NC 0700 49 20/ 4/ 4 1024.9F BUOY 41002 0750 71 72 180/ 14/ 16 1025.4F 3/ 8 3/ 20/ 8 BUOY 41010 NOT AVBL ST AUGUSTINE FL 0800 65 64 CALM / 1 1024.6S $$

USA.gov is the U.S. government's official web portal to all federal, state and local government web resources and services.